Satellite: TACSAT-3
Catalog number: 35001
Epoch time:      10167.52797451
Element set:    0320
Inclination:      040.4545 deg
RA of node:       218.0737 deg
Eccentricity:    0.0021568
Arg of perigee:   356.9422 deg
Mean anomaly:     003.1259 deg
Mean motion:   15.41799269 rev/day
Decay rate:      2.541e-05 rev/day^2
Epoch rev:           06053
Checksum:              283

Satellite: PHARMSAT
Catalog number: 35002
Epoch time:      10167.54673035
Element set:    0301
Inclination:      040.4682 deg
RA of node:       215.9560 deg
Eccentricity:    0.0024779
Arg of perigee:   001.3421 deg
Mean anomaly:     358.7457 deg
Mean motion:   15.42325663 rev/day
Decay rate:      2.317e-05 rev/day^2
Epoch rev:           06055
Checksum:              267

Satellite: HAWKSAT1
Catalog number: 35003
Epoch time:      10167.52166111
Element set:     317
Inclination:      040.4598 deg
RA of node:       210.9353 deg
Eccentricity:    0.0022423
Arg of perigee:   015.1839 deg
Mean anomaly:     344.9649 deg
Mean motion:   15.45413543 rev/day
Decay rate:      4.977e-05 rev/day^2
Epoch rev:            6061
Checksum:              276

Satellite: CP6
Catalog number: 35004
Epoch time:      10167.51896916
Element set:     313
Inclination:      040.4601 deg
RA of node:       210.0296 deg
Eccentricity:    0.0021372
Arg of perigee:   018.3141 deg
Mean anomaly:     341.8443 deg
Mean motion:   15.46239686 rev/day
Decay rate:      6.047e-05 rev/day^2
Epoch rev:            6061
Checksum:              268

Satellite: AEROCUB3
Catalog number: 35005
Epoch time:      10168.21895073
Element set:     347
Inclination:      040.4683 deg
RA of node:       203.3273 deg
Eccentricity:    0.0016670
Arg of perigee:   038.4642 deg
Mean anomaly:     321.7511 deg
Mean motion:   15.51394789 rev/day
Decay rate:     1.9982e-04 rev/day^2
Epoch rev:            6075
Checksum:              299

Satellite: DRAGNSAT
Catalog number: 35690
Epoch time:      10076.22711312
Element set:     316
Inclination:      051.6170 deg
RA of node:       315.4586 deg
Eccentricity:    0.0004999
Arg of perigee:   310.9891 deg
Mean anomaly:     057.3269 deg
Mean motion:   16.42150010 rev/day
Decay rate:   5.715194e-02 rev/day^2
Epoch rev:            3656
Checksum:              289

Satellite: POLLUX
Catalog number: 35693
Epoch time:      10087.99866888
Element set:     352
Inclination:      051.6099 deg
RA of node:       254.5746 deg
Eccentricity:    0.0006270
Arg of perigee:   294.4866 deg
Mean anomaly:     097.5899 deg
Mean motion:   16.52338462 rev/day
Decay rate:  2.3496735e-01 rev/day^2
Epoch rev:            3839
Checksum:              384

Satellite: CASTOR
Catalog number: 35694
Epoch time:      10168.57986052
Element set:     476
Inclination:      051.6335 deg
RA of node:       198.0248 deg
Eccentricity:    0.0002513
Arg of perigee:   009.0723 deg
Mean anomaly:     351.0341 deg
Mean motion:   16.02722851 rev/day
Decay rate:     9.2287e-04 rev/day^2
Epoch rev:            5112
Checksum:              284

Satellite: METEOR-M
Catalog number: 35865
Epoch time:      10168.69724727
Element set:     393
Inclination:      098.7585 deg
RA of node:       222.4926 deg
Eccentricity:    0.0003074
Arg of perigee:   019.1762 deg
Mean anomaly:     340.9482 deg
Mean motion:   14.21830590 rev/day
Decay rate:       1.76e-06 rev/day^2
Epoch rev:            3879
Checksum:              325

Satellite: RS-38
Catalog number: 35869
Epoch time:      10168.73905205
Element set:     401
Inclination:      098.7567 deg
RA of node:       222.5664 deg
Eccentricity:    0.0004948
Arg of perigee:   014.7547 deg
Mean anomaly:     345.3746 deg
Mean motion:   14.21983510 rev/day
Decay rate:       1.77e-06 rev/day^2
Epoch rev:            3880
Checksum:              326

/EX




More information about the Keps mailing list